Location: Bodham
(52.9000°N, 1.1667°E)
Time: 13:49:18
(UTC+00:00)

Cosmos 2112 Rocket - Pass Details

Date: 15 October 2025
Orbit: 753 x 782 km, 74.0° (Epoch: 13 November)

Event Time Altitude Azimuth Distance (km) Brightness Sun altitude
Rises 04:48:10 0° 336° (NNW) 3,255 7.1 -14.8°
Reaches altitude 10° 04:50:44 10° 344° (NNW) 2,320 6.4 -14.4°
Maximum altitude 04:55:38 39° 53° (NE) 1,149 5.4 -13.7°
Drops below altitude 10° 05:00:29 10° 122° (ESE) 2,289 7.3 -13.0°
Sets 05:02:59 0° 130° (SE) 3,207 8.0 -12.6°
